Weather History for Joplin, MO

Change the Weather History Date:

Tuesday, February 26, 2013

  Actual Average Record
Temperature  
Mean Temperature 33 °F 43 °F  
Max Temperature 34 °F 54 °F 81 °F (1996)
Min Temperature 32 °F 32 °F 8 °F (1960)
Degree Days  
Heating Degree Days 32 22  
Month to date heating degree days 698 662  
Since 1 July heating degree days 3051 3211  
Cooling Degree Days 0 0  
Month to date cooling degree days 0 0  
Year to date cooling degree days 1 0  
Moisture  
Dew Point 30 °F    
Average Humidity 89    
Maximum Humidity 96    
Minimum Humidity 82    
Precipitation  
Precipitation 0.35 in 0.09 in 2.02 in (1984)
Month to date precipitation 2.70 2.13  
Year to date precipitation 5.15 4.16  
Snow  
Snow 3.70 in - - ()
Month to date snowfall 5.5  
Snow Depth 4.00 in    
Sea Level Pressure  
Sea Level Pressure 29.59 in    
Wind  
Wind Speed 15 mph (NNW)    
Max Wind Speed 25 mph    
Max Gust Speed 32 mph    
Visibility 5 miles    
Events Fog , Snow    
T = Trace of Precipitation, MM = Missing Value Source: NWS Daily Summary

Daily Weather History Graph

Daily Weather History Graph

Search for Another Location

Airport:

Trip Planner

Search our weather history database for the weather conditions in past years. The results will help you decide how hot, cold, wet, or windy it might be!

Date:

Astronomy

Feb. 26, 2013 Rise Set
Actual Time 6:52 AM CST 6:09 PM CST
Civil Twilight 6:26 AM CST 6:35 PM CST
Nautical Twilight 5:56 AM CST 7:05 PM CST
Astronomical Twilight 5:26 AM CST 7:35 PM CST
Moon 7:23 PM CST (2/26) 6:58 AM CST (2/26)
Length of Visible Light 12h 09m
Length of Day
11h 16m
Full, 99% of the Moon is Illuminated
Feb 26
Full
Mar 4
Last Quarter
Mar 11
New
Mar 19
First Quarter
Mar 27
Full

Hourly Weather History & Observations

Time (CST) Temp. Windchill Dew Point Humidity Pressure Visibility Wind Dir Wind Speed Gust Speed Precip Events Conditions
12:12 AM 33.8 °F 26.4 °F 32.0 °F 93% 29.49 in 1.5 mi NNE 9.2 mph - 0.03 in Snow Light Snow
12:36 AM 32.0 °F 25.6 °F 32.0 °F 100% 29.48 in 0.8 mi North 6.9 mph - 0.08 in Snow Light Snow
12:53 AM 32.0 °F 25.6 °F 32.0 °F 100% 29.49 in 0.8 mi North 6.9 mph - 0.13 in Snow Light Snow
1:03 AM 32.0 °F 24.8 °F 32.0 °F 100% 29.48 in 0.5 mi North 8.1 mph - 0.02 in Fog , Snow Snow
1:23 AM 32.0 °F 23.0 °F 30.2 °F 93% 29.47 in 0.8 mi North 11.5 mph - 0.07 in Snow Light Snow
1:32 AM 32.0 °F 23.0 °F 30.2 °F 93% 29.47 in 0.5 mi North 11.5 mph - 0.09 in Fog , Snow Snow
1:51 AM 32.0 °F 23.0 °F 30.2 °F 93% 29.47 in 0.8 mi North 11.5 mph - 0.13 in Snow Light Snow
1:53 AM 32.0 °F 22.5 °F 30.9 °F 96% 29.48 in 0.8 mi North 12.7 mph - 0.13 in Snow Light Snow
2:23 AM 32.0 °F 22.1 °F 30.2 °F 93% 29.46 in 0.5 mi North 13.8 mph - 0.04 in Fog , Snow Snow
2:32 AM 32.0 °F 22.1 °F 30.2 °F 93% 29.46 in 0.8 mi North 13.8 mph - 0.05 in Snow Light Snow
2:40 AM 32.0 °F 22.1 °F 30.2 °F 93% 29.45 in 1.0 mi North 13.8 mph - 0.06 in Snow Light Snow
2:53 AM 32.0 °F 21.2 °F 30.9 °F 96% 29.47 in 1.2 mi North 16.1 mph - 0.06 in Snow Light Snow
3:44 AM 32.0 °F 21.2 °F 30.2 °F 93% 29.44 in 1.8 mi North 16.1 mph - 0.02 in Snow Light Snow
3:53 AM 32.0 °F 21.6 °F 30.9 °F 96% 29.45 in 2.0 mi North 15.0 mph - 0.02 in Snow Light Snow
4:25 AM 32.0 °F 20.8 °F 30.2 °F 93% 29.43 in 4.0 mi North 17.3 mph - 0.00 in Snow Light Snow
4:53 AM 32.0 °F 20.8 °F 30.9 °F 96% 29.45 in 3.0 mi North 17.3 mph 25.3 mph 0.00 in Snow Light Snow
5:13 AM 32.0 °F 20.5 °F 30.2 °F 93% 29.44 in 1.8 mi NNW 18.4 mph - 0.00 in Snow Light Snow
5:53 AM 32.0 °F 20.5 °F 30.9 °F 96% 29.47 in 1.5 mi NNW 18.4 mph 27.6 mph 0.01 in Snow Light Snow
6:53 AM 32.0 °F 20.5 °F 30.9 °F 96% 29.49 in 1.2 mi NNW 18.4 mph - 0.01 in Snow Light Snow
7:06 AM 32.0 °F 19.8 °F 30.2 °F 93% 29.48 in 0.8 mi NNW 20.7 mph 28.8 mph 0.00 in Snow Light Snow
7:53 AM 33.1 °F 21.9 °F 30.9 °F 92% 29.51 in 4.0 mi NNW 18.4 mph - 0.00 in Snow Light Snow
8:53 AM 33.1 °F 21.9 °F 30.0 °F 89% 29.53 in 10.0 mi NNW 18.4 mph 32.2 mph 0.00 in   Overcast
9:53 AM 33.1 °F 21.5 °F 30.0 °F 89% 29.56 in 10.0 mi NNW 19.6 mph 25.3 mph N/A   Overcast
10:53 AM 34.0 °F 23.4 °F 30.0 °F 85% 29.60 in 10.0 mi NNW 17.3 mph 26.5 mph N/A   Overcast
11:53 AM 34.0 °F 23.8 °F 30.0 °F 85% 29.62 in 10.0 mi NNW 16.1 mph 24.2 mph N/A   Overcast
12:53 PM 34.0 °F 24.2 °F 28.9 °F 82% 29.64 in 10.0 mi NW 15.0 mph - N/A   Overcast
1:53 PM 34.0 °F 23.4 °F 28.9 °F 82% 29.66 in 10.0 mi NW 17.3 mph 23.0 mph N/A   Overcast
2:53 PM 34.0 °F 24.6 °F 30.0 °F 85% 29.68 in 8.0 mi NW 13.8 mph - N/A   Overcast
3:53 PM 34.0 °F 24.2 °F 28.9 °F 82% 29.70 in 9.0 mi NW 15.0 mph 23.0 mph N/A   Overcast
4:53 PM 34.0 °F 25.0 °F 28.9 °F 82% 29.74 in 9.0 mi WNW 12.7 mph - N/A   Overcast
5:53 PM 34.0 °F 25.0 °F 30.0 °F 85% 29.78 in 8.0 mi West 12.7 mph - N/A   Overcast
6:53 PM 33.1 °F 23.9 °F 30.0 °F 89% 29.81 in 9.0 mi WNW 12.7 mph - N/A   Overcast
7:15 PM 33.8 °F 26.4 °F 30.2 °F 87% 29.79 in 9.0 mi WNW 9.2 mph - N/A   Overcast
7:53 PM 33.1 °F 23.9 °F 30.0 °F 89% 29.83 in 9.0 mi WNW 12.7 mph - N/A   Overcast
8:10 PM 33.8 °F 24.8 °F 30.2 °F 87% 29.81 in 9.0 mi WNW 12.7 mph - N/A   Overcast
8:53 PM 33.1 °F 24.9 °F 30.0 °F 89% 29.85 in 8.0 mi WNW 10.4 mph - N/A   Overcast
9:53 PM 33.1 °F 24.9 °F 28.9 °F 85% 29.89 in 8.0 mi WNW 10.4 mph - N/A   Overcast
10:53 PM 33.1 °F 24.4 °F 30.0 °F 89% 29.90 in 7.0 mi West 11.5 mph - N/A   Overcast
11:53 PM 33.1 °F 25.5 °F 28.9 °F 85% 29.86 in 7.0 mi NW 9.2 mph - N/A   Overcast